Weather History for KDLZ - October, 2012

Change the Weather History Date:

Monday, October 22, 2012

  Actual Average Record
Temperature  
Mean Temperature 58 °F -  
Max Temperature 75 °F 59 °F 83 °F (1953)
Min Temperature 42 °F 38 °F 20 °F (1974)
Degree Days  
Heating Degree Days 6    
Growing Degree Days 8 (Base 50)    
Moisture  
Dew Point 46 °F    
Average Humidity 65    
Maximum Humidity 87    
Minimum Humidity 41    
Precipitation  
Precipitation 0.00 in - - ()
Sea Level Pressure  
Sea Level Pressure 30.10 in    
Wind  
Wind Speed 3 mph (South)    
Max Wind Speed 13 mph    
Max Gust Speed 16 mph    
Visibility 10 miles    
Events      
Averages and records for this station are not official NWS values.
T = Trace of Precipitation, MM = Missing Value Source: NWS Daily Summary

Daily Weather History Graph

Daily Weather History Graph

Search for Another Location

Airport or City:

Trip Planner

Search our weather history database for the weather conditions in past years. The results will help you decide how hot, cold, wet, or windy it might be!

Date:

Astronomy

Oct. 22, 2012 Rise Set
Actual Time 7:51 AM EDT 6:41 PM EDT
Civil Twilight 7:23 AM EDT 7:09 PM EDT
Nautical Twilight 6:51 AM EDT 7:41 PM EDT
Astronomical Twilight 6:20 AM EDT 8:12 PM EDT
Moon 2:49 PM EDT (10/22) 12:36 AM EDT (10/22)
Length of Visible Light 11h 45m
Length of Day
10h 50m
First Quarter, 56% of the Moon is Illuminated
Oct 22
First Quarter
Oct 29
Full
Nov 6
Last Quarter
Nov 13
New
Nov 20
First Quarter

Hourly Weather History & Observations

Time (EDT) Temp. Windchill Dew Point Humidity Pressure Visibility Wind Dir Wind Speed Gust Speed Precip Events Conditions
12:16 AM 44.6 °F - 39.2 °F 81% 30.12 in 10.0 mi Calm Calm - N/A   Clear
12:37 AM 44.6 °F - 41.0 °F 87% 30.12 in 10.0 mi Calm Calm - N/A   Clear
12:56 AM 44.6 °F - 41.0 °F 87% 30.12 in 10.0 mi Calm Calm - N/A   Clear
1:16 AM 46.4 °F - 41.0 °F 81% 30.12 in 10.0 mi Calm Calm - N/A   Clear
1:37 AM 42.8 °F - 37.4 °F 81% 30.12 in 10.0 mi Calm Calm - N/A   Clear
1:56 AM 44.6 °F - 39.2 °F 81% 30.12 in 10.0 mi Calm Calm - N/A   Clear
2:36 AM 42.8 °F - 37.4 °F 81% 30.12 in 10.0 mi Calm Calm - N/A   Clear
2:56 AM 46.4 °F - 41.0 °F 81% 30.12 in 10.0 mi Calm Calm - N/A   Clear
3:36 AM 44.6 °F - 39.2 °F 81% 30.12 in 10.0 mi Calm Calm - N/A   Clear
3:56 AM 44.6 °F - 39.2 °F 81% 30.12 in 10.0 mi Calm Calm - N/A   Clear
4:17 AM 44.6 °F - 39.2 °F 81% 30.12 in 10.0 mi Calm Calm - N/A   Clear
4:56 AM 44.6 °F - 39.2 °F 81% 30.12 in 10.0 mi Calm Calm - N/A   Clear
5:17 AM 44.6 °F - 39.2 °F 81% 30.12 in 10.0 mi Calm Calm - N/A   Clear
5:36 AM 44.6 °F - 39.2 °F 81% 30.12 in 10.0 mi Calm Calm - N/A   Clear
5:56 AM 44.6 °F - 39.2 °F 81% 30.13 in 10.0 mi Calm Calm - N/A   Clear
6:17 AM 44.6 °F 43.1 °F 39.2 °F 81% 30.13 in 10.0 mi SE 3.5 mph - N/A   Clear
6:36 AM 44.6 °F - 39.2 °F 81% 30.13 in 10.0 mi Calm Calm - N/A   Clear
6:56 AM 44.6 °F 43.1 °F 39.2 °F 81% 30.14 in 10.0 mi SSE 3.5 mph - N/A   Mostly Cloudy
7:17 AM 44.6 °F 43.1 °F 41.0 °F 87% 30.14 in 10.0 mi SSE 3.5 mph - N/A   Mostly Cloudy
7:36 AM 44.6 °F - 39.2 °F 81% 30.14 in 10.0 mi Calm Calm - N/A   Scattered Clouds
7:56 AM 44.6 °F 42.2 °F 41.0 °F 87% 30.14 in 10.0 mi SSE 4.6 mph - N/A   Clear
8:17 AM 46.4 °F 44.3 °F 41.0 °F 81% 30.14 in 10.0 mi SSE 4.6 mph - N/A   Clear
8:36 AM 46.4 °F 43.5 °F 41.0 °F 81% 30.14 in 10.0 mi SSE 5.8 mph - N/A   Clear
9:17 AM 50.0 °F - 42.8 °F 76% 30.15 in 10.0 mi SSE 5.8 mph - N/A   Mostly Cloudy
9:36 AM 51.8 °F - 42.8 °F 71% 30.15 in 10.0 mi South 4.6 mph - N/A   Scattered Clouds
9:56 AM 53.6 °F - 44.6 °F 72% 30.15 in 10.0 mi South 9.2 mph - N/A   Clear
10:16 AM 55.4 °F - 44.6 °F 67% 30.15 in 10.0 mi South 8.1 mph - N/A   Clear
10:36 AM 55.4 °F - 44.6 °F 67% 30.15 in 10.0 mi SSW 5.8 mph - N/A   Clear
10:56 AM 57.2 °F - 44.6 °F 63% 30.15 in 10.0 mi South 5.8 mph - N/A   Scattered Clouds
11:16 AM 59.0 °F - 44.6 °F 59% 30.14 in 10.0 mi South 6.9 mph - N/A   Scattered Clouds
11:36 AM 62.6 °F - 46.4 °F 55% 30.14 in 10.0 mi South 6.9 mph - N/A   Clear
11:56 AM 62.6 °F - 46.4 °F 55% 30.13 in 10.0 mi South 5.8 mph - N/A   Scattered Clouds
12:16 PM 64.4 °F - 48.2 °F 56% 30.13 in 10.0 mi SSW 5.8 mph - N/A   Scattered Clouds
12:36 PM 66.2 °F - 48.2 °F 52% 30.12 in 10.0 mi South 6.9 mph - N/A   Clear
12:57 PM 66.2 °F - 48.2 °F 52% 30.12 in 10.0 mi South 8.1 mph - N/A   Clear
1:16 PM 68.0 °F - 50.0 °F 52% 30.11 in 10.0 mi SSW 9.2 mph - N/A   Clear
1:36 PM 69.8 °F - 50.0 °F 49% 30.10 in 10.0 mi SSW 9.2 mph - N/A   Clear
1:57 PM 69.8 °F - 50.0 °F 49% 30.09 in 10.0 mi South 8.1 mph - N/A   Clear
2:16 PM 71.6 °F - 50.0 °F 46% 30.09 in 10.0 mi South 10.4 mph - N/A   Clear
2:36 PM 73.4 °F - 50.0 °F 44% 30.09 in 10.0 mi South 8.1 mph - N/A   Clear
2:57 PM 73.4 °F - 50.0 °F 44% 30.08 in 10.0 mi South 9.2 mph - N/A   Clear
3:16 PM 73.4 °F - 50.0 °F 44% 30.07 in 10.0 mi South 8.1 mph - N/A   Clear
3:36 PM 73.4 °F - 51.8 °F 47% 30.07 in 10.0 mi SW 6.9 mph - N/A   Clear
3:57 PM 75.2 °F - 50.0 °F 41% 30.07 in 10.0 mi SSW 12.7 mph 16.1 mph N/A   Clear
4:16 PM 75.2 °F - 50.0 °F 41% 30.07 in 10.0 mi SW 11.5 mph - N/A   Scattered Clouds
4:36 PM 73.4 °F - 50.0 °F 44% 30.08 in 10.0 mi SSW 11.5 mph 16.1 mph N/A   Mostly Cloudy
4:57 PM 73.4 °F - 51.8 °F 47% 30.08 in 10.0 mi SSW 6.9 mph - N/A   Overcast
5:16 PM 71.6 °F - 51.8 °F 50% 30.08 in 10.0 mi SSW 5.8 mph - N/A   Overcast
5:36 PM 71.6 °F - 51.8 °F 50% 30.07 in 10.0 mi SSW 4.6 mph - N/A   Overcast
5:57 PM 71.6 °F - 51.8 °F 50% 30.07 in 10.0 mi SSW 4.6 mph - N/A   Overcast
6:16 PM 71.6 °F - 53.6 °F 53% 30.07 in 10.0 mi SSW 4.6 mph - N/A   Overcast
6:36 PM 69.8 °F - 53.6 °F 56% 30.07 in 10.0 mi Calm Calm - N/A   Scattered Clouds
6:57 PM 68.0 °F - 51.8 °F 56% 30.07 in 10.0 mi South 4.6 mph - N/A   Clear
7:16 PM 66.2 °F - 53.6 °F 64% 30.06 in 10.0 mi South 5.8 mph - N/A   Clear
7:36 PM 64.4 °F - 53.6 °F 68% 30.05 in 10.0 mi SSE 8.1 mph - N/A   Clear
7:57 PM 68.0 °F - 51.8 °F 56% 30.05 in 10.0 mi South 4.6 mph - N/A   Clear
8:16 PM 66.2 °F - 51.8 °F 60% 30.05 in 10.0 mi South 4.6 mph - N/A   Clear
8:36 PM 66.2 °F - 51.8 °F 60% 30.06 in 10.0 mi SSW 4.6 mph - N/A   Clear
8:57 PM 64.4 °F - 51.8 °F 64% 30.06 in 10.0 mi SSW 3.5 mph - N/A   Clear
9:16 PM 62.6 °F - 50.0 °F 63% 30.06 in 10.0 mi Calm Calm - N/A   Clear
9:57 PM 62.6 °F - 50.0 °F 63% 30.06 in 10.0 mi South 5.8 mph - N/A   Clear
10:16 PM 62.6 °F - 50.0 °F 63% 30.06 in 10.0 mi South 4.6 mph - N/A   Scattered Clouds
10:36 PM 62.6 °F - 50.0 °F 63% 30.06 in 10.0 mi South 5.8 mph - N/A   Mostly Cloudy
10:57 PM 62.6 °F - 50.0 °F 63% 30.06 in 10.0 mi South 5.8 mph - N/A   Mostly Cloudy
11:16 PM 62.6 °F - 50.0 °F 63% 30.06 in 10.0 mi South 5.8 mph - N/A   Mostly Cloudy
11:36 PM 64.4 °F - 51.8 °F 64% 30.06 in 10.0 mi SSW 6.9 mph - N/A   Mostly Cloudy
11:56 PM 62.6 °F - 50.0 °F 63% 30.05 in 10.0 mi SSW 6.9 mph - N/A   Mostly Cloudy